Location: Foots Cray
(51.4000°N, 0.1167°E)
Time: 23:25:36
(UTC+00:00)

RESURS DK-1 - Pass Details

Date: 15 May 2026
Orbit: 522 x 531 km, 69.9° (Epoch: 11 June)

Event Time Altitude Azimuth Distance (km) Brightness Sun altitude
Rises 22:12:51 0° 330° (NNW) 2,683 7.7 -16.0°
Reaches altitude 10° 22:15:05 10° 336° (NNW) 1,790 6.3 -16.2°
Maximum altitude 22:18:58 49° 53° (NE) 692 2.9 -16.4°
Enters shadow 22:20:51 27° 115° (ESE) 1,059 3.3 -16.5°
